This is the latest recevied weather packets stored in our database for station/object WE8M. If no packets are shown the sender has not sent any weather packets the latest 1 day(s).
| Time | Temp. | Humidity | Pressure | Rain* | Wind** | Luminosity | Snow |
|---|---|---|---|---|---|---|---|
| 1778077893 | 10.56° C | 78% | 1012 hPa | 0 mm | - | - | - |
| 1778076382 | 10.56° C | 80% | 1011.7 hPa | 0 mm | - | - | - |
| 1778076079 | 10.56° C | 81% | 1011.7 hPa | 0 mm | - | - | - |
| 1778075472 | 10° C | 83% | 1011.7 hPa | 0 mm | - | - | - |
| 1778074562 | 10° C | 84% | 1011.6 hPa | 0 mm | - | - | - |
| 1778073956 | 8.89° C | 87% | 1011.2 hPa | 0 mm | - | - | - |
| 1778072139 | 8.33° C | 90% | 1011 hPa | 0 mm | - | - | - |
| 1778071232 | 8.33° C | 90% | 1011.2 hPa | 0 mm | - | - | - |
| 1778068207 | 7.78° C | 94% | 1010.2 hPa | 0 mm | - | - | - |
| 1778066996 | 7.78° C | 93% | 1009.7 hPa | 0 mm | - | - | - |
| 1778066693 | 7.78° C | 93% | 1010 hPa | 0 mm | - | - | - |
| 1778064876 | 7.78° C | 93% | 1008.9 hPa | 0 mm | - | - | - |
| 1778064271 | 7.78° C | 93% | 1008.5 hPa | 0 mm | - | - | - |
| 1778063666 | 7.78° C | 94% | 1008.2 hPa | 0 mm | - | - | - |
| 1778063363 | 7.78° C | 94% | 1008.1 hPa | 0 mm | - | - | - |
| 1778063061 | 7.78° C | 94% | 1008.1 hPa | 1.78 mm | - | - | - |
| 1778062454 | 7.78° C | 94% | 1008.5 hPa | 0 mm | - | - | - |
| 1778061850 | 7.78° C | 94% | 1008.5 hPa | 0 mm | - | - | - |
| 1778061548 | 8.33° C | 94% | 1008.6 hPa | 0 mm | - | - | - |
| 1778060641 | 8.33° C | 94% | 1007.9 hPa | 0 mm | - | - | - |
| 1778060338 | 8.33° C | 94% | 1008.1 hPa | 0 mm | - | - | - |
| 1778059431 | 8.33° C | 94% | 1007.9 hPa | 0 mm | - | - | - |
| 1778059127 | 8.33° C | 94% | 1008 hPa | 0 mm | - | - | - |
| 1778058220 | 8.33° C | 94% | 1007.7 hPa | 0 mm | - | - | - |
| 1778057006 | 8.33° C | 95% | 1007.5 hPa | 0 mm | - | - | - |
* Rain latest hour (hover to see other rain measurements)
** Current wind speed in m/s (hover to see current wind gust speed)